This is the latest recevied weather packets stored in our database for station/object WD0REW. If no packets are shown the sender has not sent any weather packets the latest 10 day(s).
| Time | Temp. | Humidity | Pressure | Rain* | Wind** | Luminosity | Snow |
|---|---|---|---|---|---|---|---|
| 1777971533 | 16.11° C | 87% | 1004.4 hPa | 1.27 mm | - | 0 W/m² | - |
| 1777971231 | 16.11° C | 88% | 1004.7 hPa | 0 mm | - | 0 W/m² | - |
| 1777970929 | 16.11° C | 88% | 1004.7 hPa | 1.78 mm | - | 0 W/m² | - |
| 1777970627 | 16.67° C | 87% | 1005.4 hPa | 1.27 mm | - | 0 W/m² | - |
| 1777970324 | 16.67° C | 86% | 1006.4 hPa | 1.78 mm | - | 0 W/m² | - |
| 1777970021 | 16.67° C | 86% | 1006.6 hPa | 3.56 mm | - | 0 W/m² | - |
| 1777969718 | 16.67° C | 85% | 1006.5 hPa | 1.78 mm | - | 0 W/m² | - |
| 1777969414 | 16.67° C | 84% | 1007.1 hPa | 0 mm | - | 0 W/m² | - |
| 1777969111 | 17.22° C | 83% | 1006.6 hPa | 0 mm | - | 0 W/m² | - |
| 1777968807 | 17.22° C | 81% | 1006.9 hPa | 0 mm | - | 0 W/m² | - |
| 1777968504 | 17.22° C | 80% | 1006.8 hPa | 0 mm | - | 0 W/m² | - |
| 1777968200 | 17.78° C | 79% | 1006.2 hPa | 0 mm | - | 0 W/m² | - |
| 1777967896 | 17.78° C | 76% | 1006.4 hPa | 0 mm | - | 0 W/m² | - |
| 1777967593 | 17.78° C | 74% | 1006.3 hPa | 0 mm | - | 0 W/m² | - |
| 1777967290 | 18.33° C | 73% | 1006.3 hPa | 0 mm | - | 0 W/m² | - |
| 1777966987 | 18.33° C | 73% | 1006.4 hPa | 0 mm | - | 0 W/m² | - |
| 1777966685 | 18.33° C | 72% | 1006.5 hPa | 0 mm | - | 0 W/m² | - |
| 1777966383 | 18.33° C | 71% | 1006.5 hPa | 0 mm | - | 0 W/m² | - |
| 1777966079 | 18.33° C | 70% | 1006.3 hPa | 0 mm | - | 0 W/m² | - |
| 1777965775 | 18.33° C | 69% | 1006 hPa | 0 mm | - | 0 W/m² | - |
| 1777965471 | 18.33° C | 68% | 1006.3 hPa | 0 mm | - | 0 W/m² | - |
| 1777965168 | 18.33° C | 68% | 1006.3 hPa | 0 mm | - | 0 W/m² | - |
| 1777964865 | 18.33° C | 67% | 1006.2 hPa | 0 mm | - | 0 W/m² | - |
| 1777964562 | 18.33° C | 67% | 1006.1 hPa | 0 mm | - | 0 W/m² | - |
| 1777964257 | 18.33° C | 67% | 1006.2 hPa | 0 mm | - | 0 W/m² | - |
* Rain latest hour (hover to see other rain measurements)
** Current wind speed in m/s (hover to see current wind gust speed)